This demonstration page uses our WeatherBlox Daily Observations layout. Learn more.

Left ArrowRight Arrow

Hourly Observations for April 18, 2017

Temp ( °F °C ) Dew Point ( °F °C ) Humidity (%) Winds ( mph kmh ) Pressure ( in mb ) Visibility ( mi km ) Precip ( " mm )
12:53 am 00:53 Clear 32 0 32 0 100 100 ESE 6 9 29.96 1015 9 14 0.00 0.00
1:53 am 01:53 Clear with Mist and Fog 32 0 31 -0.6 96 96 E 6 9 29.96 1015 6 10 0.00 0.00
1:58 am 01:58 Clear with Mist and Fog 30 -1 30 -1 100 100 ENE 6 9 30.00 1016 2 2 0.00 0.00
2:03 am 02:03 Clear with Mist and Fog 30 -1 30 -1 100 100 E 6 9 30.00 1016 1 1 0.00 0.00
2:09 am 02:09 Clear with Mist and Fog 31 -0.6 31 -0.6 100 100 ENE 5 7 30.00 1016 2 2 0.00 0.00
2:14 am 02:14 Mostly Clear with Mist and Fog 30 -1 30 -1 100 100 NE 5 7 30.00 1016 2 3 0.00 0.00
2:16 am 02:16 Mostly Clear with Mist and Fog 30 -1 30 -1 100 100 ENE 5 7 30.00 1016 1 2 0.00 0.00
2:19 am 02:19 Mostly Cloudy with Mist and Fog 31 -0.6 31 -0.6 100 100 ENE 5 7 30.00 1016 1 1 0.00 0.00
2:36 am 02:36 Mostly Clear with Mist and Fog 31 -0.6 31 -0.6 100 100 E 5 7 30.00 1016 1 2 0.00 0.00
2:39 am 02:39 Mostly Clear with Mist and Fog 31 -0.6 31 -0.6 100 100 E 5 7 30.00 1016 2 3 0.00 0.00
2:53 am 02:53 Clear 32 0 31 -0.6 96 96 E 3 6 29.95 1014 10 16 0.00 0.00
3:53 am 03:53 Clear 30 -1.1 29 -1.7 96 96 E 5 7 29.94 1014 10 16 0.00 0.00
4:53 am 04:53 Mostly Clear with Mist and Fog 28 -2.2 28 -2.2 100 100 E 5 7 29.93 1014 6 10 0.00 0.00
5:40 am 05:40 Mostly Clear with Mist and Fog 28 -2 27 -3 93 93 ENE 5 7 29.97 1015 2 3 0.00 0.00
5:50 am 05:50 Mostly Clear with Mist and Fog 28 -2 27 -3 93 93 E 6 9 29.97 1015 3 5 0.00 0.00
5:53 am 05:53 Mostly Clear 28 -2.2 27 -2.8 96 96 E 3 6 29.92 1013 7 11 0.00 0.00
6:53 am 06:53 Mostly Cloudy with Mist and Fog 27 -2.8 26 -3.3 96 96 SSE 5 7 29.95 1014 4 6 0.00 0.00
7:53 am 07:53 Mostly Sunny 31 -0.6 31 -0.6 100 100 Calm 29.95 1014 10 16 0.00 0.00
8:53 am 08:53 Cloudy 34 1.1 33 0.6 97 97 E 5 7 29.95 1014 10 16 0.00 0.00
9:53 am 09:53 Partly Cloudy 39 3.9 37 2.8 93 93 SE 5 7 29.95 1014 10 16 0.00 0.00
10:53 am 10:53 Sunny 50 10 43 6.1 77 77 Calm 29.91 1013 10 16 0.00 0.00
11:53 am 11:53 Sunny 57 13.9 36 2.2 45 45 SW 8 13 29.89 1012 10 16 0.00 0.00
12:53 pm 12:53 Sunny 59 15 38 3.3 46 46 SW 12 19 29.87 1012 10 16 0.00 0.00
1:53 pm 13:53 Mostly Cloudy 63 17.2 35 1.7 35 35 SW 13 20 29.84 1011 10 16 0.00 0.00
2:53 pm 14:53 Mostly Sunny 64 17.8 34 1.1 33 33 WNW 14 22 29.83 1010 10 16 0.00 0.00
3:53 pm 15:53 Mostly Cloudy 65 18.3 35 1.7 33 33 W 14 22 29.83 1010 10 16 0.00 0.00
4:53 pm 16:53 Partly Cloudy 65 18.3 32 0 29 29 SSW 7 11 29.82 1010 10 16 0.00 0.00
5:53 pm 17:53 Mostly Cloudy 65 18.3 32 0 29 29 VRB 5 7 29.81 1010 10 16 0.00 0.00
6:53 pm 18:53 Partly Cloudy 63 17.2 34 1.1 34 34 WNW 7 11 29.82 1010 10 16 0.00 0.00
7:53 pm 19:53 Mostly Cloudy 59 15 35 1.7 41 41 Calm 29.83 1010 10 16 0.00 0.00
8:53 pm 20:53 Clear 49 9.4 39 3.9 69 69 SSE 6 9 29.85 1011 10 16 0.00 0.00
9:53 pm 21:53 Mostly Cloudy 45 7.2 38 3.3 77 77 WSW 3 6 29.87 1012 10 16 0.00 0.00
10:53 pm 22:53 Cloudy 52 11.1 38 3.3 59 59 W 13 20 29.86 1011 10 16 0.00 0.00
11:53 pm 23:53 Mostly Cloudy 51 10.6 38 3.3 61 61 SSW 5 7 29.86 1011 10 16 0.00 0.00

Powered by AerisWeather